This is the latest recevied weather packets stored in our database for station/object KD4VIF. If no packets are shown the sender has not sent any weather packets the latest 10 day(s).
| Time | Temp. | Humidity | Pressure | Rain* | Wind** | Luminosity | Snow |
|---|---|---|---|---|---|---|---|
| 1777917995 | 23.89° C | 100% | 1014.7 hPa | 0 mm | 1.34 m/s, 312° | - | - |
| 1777917394 | 23.33° C | 100% | 1014.8 hPa | 0 mm | 0.89 m/s, 264° | - | - |
| 1777917095 | 23.33° C | 100% | 1014.9 hPa | 0 mm | 0 m/s | - | - |
| 1777916194 | 23.33° C | 100% | 1015.2 hPa | 0 mm | 0 m/s | - | - |
| 1777915895 | 23.33° C | 100% | 1015.2 hPa | 0 mm | 0 m/s | - | - |
| 1777915595 | 22.78° C | 100% | 1015.4 hPa | 0 mm | 0 m/s | - | - |
| 1777914996 | 22.78° C | 100% | 1015.4 hPa | 0 mm | 0.45 m/s, 306° | - | - |
| 1777913494 | 22.22° C | 100% | 1015.7 hPa | 0 mm | 2.68 m/s, 281° | - | - |
| 1777913194 | 22.22° C | 100% | 1015.8 hPa | 0 mm | 0 m/s | - | - |
| 1777912594 | 21.67° C | 100% | 1015.9 hPa | 0 mm | 1.34 m/s, 281° | - | - |
| 1777912294 | 21.67° C | 100% | 1015.9 hPa | 0 mm | 0 m/s | - | - |
| 1777911994 | 21.67° C | 100% | 1016 hPa | 0 mm | 0 m/s | - | - |
| 1777911394 | 21.67° C | 100% | 1016.1 hPa | 0 mm | 0 m/s | - | - |
| 1777910794 | 21.11° C | 100% | 1016.3 hPa | 0 mm | 0.45 m/s, 274° | - | - |
| 1777909894 | 21.11° C | 100% | 1016.5 hPa | 0 mm | 0.45 m/s, 261° | - | - |
| 1777909594 | 20.56° C | 100% | 1016.6 hPa | 0 mm | 0.45 m/s, 248° | - | - |
| 1777908994 | 20.56° C | 100% | 1016.6 hPa | 0 mm | 0 m/s | - | - |
| 1777908394 | 20° C | 100% | 1016.7 hPa | 0 mm | 0 m/s | - | - |
| 1777908094 | 20° C | 100% | 1016.8 hPa | 0 mm | 1.34 m/s, 278° | - | - |
| 1777907497 | 19.44° C | 100% | 1016.8 hPa | 0 mm | 0 m/s | - | - |
| 1777905994 | 18.33° C | 100% | 1016.9 hPa | 0 mm | 0 m/s | - | - |
| 1777905694 | 17.78° C | 100% | 1016.9 hPa | 0 mm | 0 m/s | - | - |
| 1777905394 | 16.67° C | 100% | 1017 hPa | 0 mm | 0 m/s | - | - |
| 1777903897 | 15° C | 100% | 1016.9 hPa | 0 mm | 0 m/s | - | - |
| 1777902994 | 13.89° C | 100% | 1017 hPa | 0 mm | 0 m/s | - | - |
* Rain latest hour (hover to see other rain measurements)
** Current wind speed in m/s (hover to see current wind gust speed)